Вернуться в каталог

SL-3 R/B

АктивенPO
NORAD 9662·ROCKET BODY·🇷🇺 Russia

Запущен Jan 6, 1977 с Plesetsk Cosmodrome

Loading…

Ближайшие Пролёты (ближайшие 24 часа)

TLE

СвежийSource: Space-Track

Эпоха: Sep 14, 2026, 06:21 UTC

1 09662U 77002B   26257.26473626  .00000086  00000-0  48071-4 0  9995
2 09662  81.2715  87.5276 0052250  12.0082 348.2315 14.01317959539105

Отслеживайте SL-3 R/B в реальном времени с AllMySat

Download on the App Store